This is the latest recevied weather packets stored in our database for station/object IV3CLI-10. If no packets are shown the sender has not sent any weather packets the latest 10 day(s).
| Time | Temp. | Humidity | Pressure | Rain* | Wind** | Luminosity | Snow |
|---|---|---|---|---|---|---|---|
| 1777895680 | 23.89° C | 100% | 1017.4 hPa | - | - | - | - |
| 1777894780 | 23.33° C | 100% | 1017.5 hPa | - | - | - | - |
| 1777893880 | 24.44° C | 100% | 1017.5 hPa | - | - | - | - |
| 1777892980 | 26.67° C | 100% | 1017.6 hPa | - | - | - | - |
| 1777892091 | 26.11° C | 80% | 1017.6 hPa | - | - | - | - |
| 1777891191 | 25.56° C | 87% | 1017.8 hPa | - | - | - | - |
| 1777890291 | 24.44° C | 72% | 1018 hPa | - | - | - | - |
| 1777889391 | 24.44° C | 62% | 1018 hPa | - | - | - | - |
| 1777888491 | 23.33° C | 66% | 1018.1 hPa | - | - | - | - |
| 1777887591 | 24.44° C | 63% | 1018.1 hPa | - | - | - | - |
| 1777886689 | 23.33° C | 65% | 1018.2 hPa | - | - | - | - |
| 1777885789 | 23.89° C | 73% | 1018.1 hPa | - | - | - | - |
| 1777884889 | 25.56° C | 68% | 1018 hPa | - | - | - | - |
| 1777883989 | 25.56° C | 71% | 1018 hPa | - | - | - | - |
| 1777883089 | 25.56° C | 76% | 1018 hPa | - | - | - | - |
| 1777882189 | 23.33° C | 89% | 1018.1 hPa | - | - | - | - |
| 1777881289 | 22.78° C | 95% | 1018.1 hPa | - | - | - | - |
| 1777880389 | 22.78° C | 100% | 1018 hPa | - | - | - | - |
| 1777879489 | 21.11° C | 100% | 1017.9 hPa | - | - | - | - |
| 1777878589 | 19.44° C | 100% | 1017.8 hPa | - | - | - | - |
| 1777877689 | 17.78° C | 100% | 1017.7 hPa | - | - | - | - |
| 1777876788 | 17.22° C | 100% | 1017.5 hPa | - | - | - | - |
| 1777875888 | 16.67° C | 100% | 1017.4 hPa | - | - | - | - |
| 1777874988 | 15° C | 100% | 1017.3 hPa | - | - | - | - |
| 1777874088 | 12.78° C | 100% | 1017.3 hPa | - | - | - | - |
* Rain since midnight (hover to see other rain measurements)
** Current wind speed in m/s (hover to see current wind gust speed)